Year,Month,Day,Hour,Minute,Value (Times are PST for windspeed in km/hr)
2016,10,07,00,00,19.20
2016,10,07,00,01,20.00
2016,10,07,00,02,20.10
2016,10,07,00,03,23.00
2016,10,07,00,04,22.10
2016,10,07,00,05,19.90
2016,10,07,00,06,16.30
2016,10,07,00,07,18.90
2016,10,07,00,08,15.60
2016,10,07,00,09,15.60
2016,10,07,00,10,14.10
2016,10,07,00,11,14.10
2016,10,07,00,12,20.40
2016,10,07,00,13,17.20
2016,10,07,00,14,17.20
2016,10,07,00,15,19.20
2016,10,07,00,16,14.80
2016,10,07,00,17,11.30
2016,10,07,00,18,19.10
2016,10,07,00,19,21.10
2016,10,07,00,20,22.00
2016,10,07,00,21,25.10
2016,10,07,00,22,19.70
2016,10,07,00,23,21.20
2016,10,07,00,24,17.70
2016,10,07,00,25,16.40
2016,10,07,00,26,21.10
2016,10,07,00,27,16.90
2016,10,07,00,28,22.10
2016,10,07,00,29,18.90
2016,10,07,00,30,20.30
2016,10,07,00,31,15.30
2016,10,07,00,32,20.00
2016,10,07,00,33,18.10
2016,10,07,00,34,20.80
2016,10,07,00,35,19.50
2016,10,07,00,36,16.60
2016,10,07,00,37,17.40
2016,10,07,00,38,25.40
2016,10,07,00,39,24.10
2016,10,07,00,40,16.40
2016,10,07,00,41,22.90
2016,10,07,00,42,13.90
2016,10,07,00,43,16.90
2016,10,07,00,44,14.60
2016,10,07,00,45,17.50
2016,10,07,00,46,17.20
2016,10,07,00,47,14.70
2016,10,07,00,48,18.90
2016,10,07,00,49,15.90
2016,10,07,00,50,9.00
2016,10,07,00,51,11.60
2016,10,07,00,52,16.90
2016,10,07,00,53,15.00
2016,10,07,00,54,13.30
2016,10,07,00,55,13.40
2016,10,07,00,56,10.30
2016,10,07,00,57,13.70
2016,10,07,00,58,17.20
2016,10,07,00,59,12.30
2016,10,07,01,00,10.50
2016,10,07,01,01,11.80
2016,10,07,01,02,11.10
2016,10,07,01,03,11.00
2016,10,07,01,04,13.10
2016,10,07,01,05,18.30
2016,10,07,01,06,17.60
2016,10,07,01,07,19.10
2016,10,07,01,08,20.20
2016,10,07,01,09,18.00
2016,10,07,01,10,18.60
2016,10,07,01,11,18.00
2016,10,07,01,12,14.50
2016,10,07,01,13,16.50
2016,10,07,01,14,17.20
2016,10,07,01,15,22.60
2016,10,07,01,16,19.20
2016,10,07,01,17,25.60
2016,10,07,01,18,23.10
2016,10,07,01,19,20.50
2016,10,07,01,20,17.50
2016,10,07,01,21,21.30
2016,10,07,01,22,21.50
2016,10,07,01,23,20.00
2016,10,07,01,24,17.70
2016,10,07,01,25,13.70
2016,10,07,01,26,14.90
2016,10,07,01,27,11.40
2016,10,07,01,28,11.80
2016,10,07,01,29,11.10
2016,10,07,01,30,11.20
2016,10,07,01,31,10.70
2016,10,07,01,32,10.70
2016,10,07,01,33,10.00
2016,10,07,01,34,9.60
2016,10,07,01,35,9.30
2016,10,07,01,36,10.50
2016,10,07,01,37,12.00
2016,10,07,01,38,9.00
2016,10,07,01,39,10.60
2016,10,07,01,40,7.70
2016,10,07,01,41,12.00
2016,10,07,01,42,11.60
2016,10,07,01,43,13.50
2016,10,07,01,44,10.80
2016,10,07,01,45,9.70
2016,10,07,01,46,9.70
2016,10,07,01,47,8.70
2016,10,07,01,48,8.90
2016,10,07,01,49,10.00
2016,10,07,01,50,10.40
2016,10,07,01,51,10.80
2016,10,07,01,52,10.80
2016,10,07,01,53,10.00
2016,10,07,01,54,10.20
2016,10,07,01,55,8.10
2016,10,07,01,56,10.70
2016,10,07,01,57,8.30
2016,10,07,01,58,5.70
2016,10,07,01,59,5.60
2016,10,07,02,00,4.50
2016,10,07,02,01,9.10
2016,10,07,02,02,6.80
2016,10,07,02,03,8.70
2016,10,07,02,04,6.30
2016,10,07,02,05,8.50
2016,10,07,02,06,6.70
2016,10,07,02,07,6.80
2016,10,07,02,08,7.10
2016,10,07,02,09,3.30
2016,10,07,02,10,7.00
2016,10,07,02,11,8.10
2016,10,07,02,12,7.70
2016,10,07,02,13,8.00
2016,10,07,02,14,7.70
2016,10,07,02,15,11.40
2016,10,07,02,16,15.00
2016,10,07,02,17,15.80
2016,10,07,02,18,11.90
2016,10,07,02,19,9.60
2016,10,07,02,20,13.40
2016,10,07,02,21,17.20
2016,10,07,02,22,14.90
2016,10,07,02,23,18.20
2016,10,07,02,24,20.20
2016,10,07,02,25,18.20
2016,10,07,02,26,19.20
2016,10,07,02,27,17.60
2016,10,07,02,28,18.70
2016,10,07,02,29,14.50
2016,10,07,02,30,21.50
2016,10,07,02,31,20.80
2016,10,07,02,32,19.90
2016,10,07,02,33,17.60
2016,10,07,02,34,18.10
2016,10,07,02,35,23.30
2016,10,07,02,36,19.70
2016,10,07,02,37,22.10
2016,10,07,02,38,15.70
2016,10,07,02,39,23.40
2016,10,07,02,40,19.30
2016,10,07,02,41,22.50
2016,10,07,02,42,14.60
2016,10,07,02,43,17.40
2016,10,07,02,44,16.50
2016,10,07,02,45,13.00
2016,10,07,02,46,15.60
2016,10,07,02,47,13.80
2016,10,07,02,48,20.80
2016,10,07,02,49,20.50
2016,10,07,02,50,16.80
2016,10,07,02,51,14.10
2016,10,07,02,52,13.60
2016,10,07,02,53,9.10
2016,10,07,02,54,15.40
2016,10,07,02,55,16.60
2016,10,07,02,56,10.00
2016,10,07,02,57,7.40
2016,10,07,02,58,15.60
2016,10,07,02,59,11.10
2016,10,07,03,00,9.50
2016,10,07,03,01,9.20
2016,10,07,03,02,13.10
2016,10,07,03,03,11.30
2016,10,07,03,04,13.60
2016,10,07,03,05,14.30
2016,10,07,03,06,13.80
2016,10,07,03,07,8.10
2016,10,07,03,08,12.00
2016,10,07,03,09,12.30
2016,10,07,03,10,11.70
2016,10,07,03,11,11.00
2016,10,07,03,12,11.00
2016,10,07,03,13,16.00
2016,10,07,03,14,19.30
2016,10,07,03,15,10.70
2016,10,07,03,16,15.60
2016,10,07,03,17,12.30
2016,10,07,03,18,16.40
2016,10,07,03,19,13.60
2016,10,07,03,20,11.20
2016,10,07,03,21,18.20
2016,10,07,03,22,16.20
2016,10,07,03,23,14.90
2016,10,07,03,24,14.90
2016,10,07,03,25,13.10
2016,10,07,03,26,13.00
2016,10,07,03,27,12.30
2016,10,07,03,28,13.30
2016,10,07,03,29,17.90
2016,10,07,03,30,11.10
2016,10,07,03,31,13.90
2016,10,07,03,32,13.60
2016,10,07,03,33,13.00
2016,10,07,03,34,15.30
2016,10,07,03,35,14.90
2016,10,07,03,36,12.20
2016,10,07,03,37,14.10
2016,10,07,03,38,12.70
2016,10,07,03,39,11.90
2016,10,07,03,40,9.70
2016,10,07,03,41,9.40
2016,10,07,03,42,17.90
2016,10,07,03,43,15.20
2016,10,07,03,44,12.70
2016,10,07,03,45,23.20
2016,10,07,03,46,18.80
2016,10,07,03,47,17.30
2016,10,07,03,48,16.20
2016,10,07,03,49,15.60
2016,10,07,03,50,21.80
2016,10,07,03,51,11.60
2016,10,07,03,52,13.30
2016,10,07,03,53,15.20
2016,10,07,03,54,17.90
2016,10,07,03,55,20.00
2016,10,07,03,56,14.80
2016,10,07,03,57,14.00
2016,10,07,03,58,15.20
2016,10,07,03,59,10.80
2016,10,07,04,00,17.30
2016,10,07,04,01,11.90
2016,10,07,04,02,10.70
2016,10,07,04,03,10.90
2016,10,07,04,04,12.30
2016,10,07,04,05,10.00
2016,10,07,04,06,9.70
2016,10,07,04,07,9.40
2016,10,07,04,08,10.50
2016,10,07,04,09,6.70
2016,10,07,04,10,8.90
2016,10,07,04,11,12.50
2016,10,07,04,12,9.00
2016,10,07,04,13,15.10
2016,10,07,04,14,12.80
2016,10,07,04,15,12.80
2016,10,07,04,16,11.30
2016,10,07,04,17,13.20
2016,10,07,04,18,10.40
2016,10,07,04,19,11.60
2016,10,07,04,20,5.90
2016,10,07,04,21,10.60
2016,10,07,04,22,10.70
2016,10,07,04,23,12.20
2016,10,07,04,24,6.80
2016,10,07,04,25,12.80
2016,10,07,04,26,11.60
2016,10,07,04,27,10.00
2016,10,07,04,28,10.60
2016,10,07,04,29,13.80
2016,10,07,04,30,13.00
2016,10,07,04,31,14.90
2016,10,07,04,32,11.60
2016,10,07,04,33,13.90
2016,10,07,04,34,14.60
2016,10,07,04,35,15.90
2016,10,07,04,36,13.70
2016,10,07,04,37,17.80
2016,10,07,04,38,16.50
2016,10,07,04,39,12.00
2016,10,07,04,40,16.90
2016,10,07,04,41,11.20
2016,10,07,04,42,15.10
2016,10,07,04,43,19.30
2016,10,07,04,44,18.90
2016,10,07,04,45,10.40
2016,10,07,04,46,12.40
2016,10,07,04,47,13.00
2016,10,07,04,48,12.70
2016,10,07,04,49,13.70
2016,10,07,04,50,12.40
2016,10,07,04,51,11.40
2016,10,07,04,52,14.80
2016,10,07,04,53,13.20
2016,10,07,04,54,10.50
2016,10,07,04,55,12.60
2016,10,07,04,56,12.40
2016,10,07,04,57,19.10
2016,10,07,04,58,16.60
2016,10,07,04,59,14.30
2016,10,07,05,00,11.10
2016,10,07,05,01,12.50
2016,10,07,05,02,11.90
2016,10,07,05,03,16.30
2016,10,07,05,04,15.90
2016,10,07,05,05,16.90
2016,10,07,05,06,15.20
2016,10,07,05,07,15.90
2016,10,07,05,08,18.20
2016,10,07,05,09,17.20
2016,10,07,05,10,16.90
2016,10,07,05,11,18.30
2016,10,07,05,12,14.50
2016,10,07,05,13,14.50
2016,10,07,05,14,16.50
2016,10,07,05,15,10.30
2016,10,07,05,16,9.60
2016,10,07,05,17,12.40
2016,10,07,05,18,14.90
2016,10,07,05,19,11.50
2016,10,07,05,20,15.80
2016,10,07,05,21,13.80
2016,10,07,05,22,12.30
2016,10,07,05,23,8.60
2016,10,07,05,24,11.30
2016,10,07,05,25,11.60
2016,10,07,05,26,11.50
2016,10,07,05,27,10.80
2016,10,07,05,28,11.60
2016,10,07,05,29,9.60
2016,10,07,05,30,6.80
2016,10,07,05,31,17.00
2016,10,07,05,32,14.20
2016,10,07,05,33,16.80
2016,10,07,05,34,13.50
2016,10,07,05,35,13.60
2016,10,07,05,36,14.20
2016,10,07,05,37,15.80
2016,10,07,05,38,15.90
2016,10,07,05,39,13.30
2016,10,07,05,40,13.60
2016,10,07,05,41,18.10
2016,10,07,05,42,13.40
2016,10,07,05,43,10.60
2016,10,07,05,44,10.30
2016,10,07,05,45,10.20
2016,10,07,05,46,11.30
2016,10,07,05,47,14.10
2016,10,07,05,48,9.40
2016,10,07,05,49,14.00
2016,10,07,05,50,17.20
2016,10,07,05,51,12.70
2016,10,07,05,52,17.10
2016,10,07,05,53,13.40
2016,10,07,05,54,14.90
2016,10,07,05,55,15.90
2016,10,07,05,56,19.50
2016,10,07,05,57,13.00
2016,10,07,05,58,16.40
2016,10,07,05,59,15.50
2016,10,07,06,00,14.10
2016,10,07,06,01,13.30
2016,10,07,06,02,8.70
2016,10,07,06,03,15.50
2016,10,07,06,04,10.30
2016,10,07,06,05,7.30
2016,10,07,06,06,9.00
2016,10,07,06,07,14.30
2016,10,07,06,08,15.70
2016,10,07,06,09,13.40
2016,10,07,06,10,17.40
2016,10,07,06,11,10.20
2016,10,07,06,12,16.10
2016,10,07,06,13,14.50
2016,10,07,06,14,11.90
2016,10,07,06,15,16.80
2016,10,07,06,16,9.70
2016,10,07,06,17,14.50
2016,10,07,06,18,14.80
2016,10,07,06,19,14.20
2016,10,07,06,20,11.90
2016,10,07,06,21,12.30
2016,10,07,06,22,14.30
2016,10,07,06,23,19.20
2016,10,07,06,24,14.10
2016,10,07,06,25,12.10
2016,10,07,06,26,15.80
2016,10,07,06,27,12.80
2016,10,07,06,28,14.50
2016,10,07,06,29,15.10
2016,10,07,06,30,11.40
2016,10,07,06,31,10.70
2016,10,07,06,32,15.40
2016,10,07,06,33,12.50
2016,10,07,06,34,15.60
2016,10,07,06,35,14.30
2016,10,07,06,36,15.90
2016,10,07,06,37,15.20
2016,10,07,06,38,14.90
2016,10,07,06,39,14.50
2016,10,07,06,40,14.90
2016,10,07,06,41,13.10
2016,10,07,06,42,13.60
2016,10,07,06,43,14.60
2016,10,07,06,44,14.30
2016,10,07,06,45,11.40
2016,10,07,06,46,12.40
2016,10,07,06,47,11.70
2016,10,07,06,48,12.60
2016,10,07,06,49,12.30
2016,10,07,06,50,10.40
2016,10,07,06,51,12.50
2016,10,07,06,52,12.10
2016,10,07,06,53,10.10
2016,10,07,06,54,11.00
2016,10,07,06,55,11.10
2016,10,07,06,56,8.60
2016,10,07,06,57,10.00
2016,10,07,06,58,17.30
2016,10,07,06,59,17.80
2016,10,07,07,00,9.90
2016,10,07,07,01,8.20
2016,10,07,07,02,9.40
2016,10,07,07,03,13.90
2016,10,07,07,04,13.00
2016,10,07,07,05,11.90
2016,10,07,07,06,11.30
2016,10,07,07,07,11.70
2016,10,07,07,08,9.70
2016,10,07,07,09,10.90
2016,10,07,07,10,10.30
2016,10,07,07,11,12.00
2016,10,07,07,12,12.80
2016,10,07,07,13,9.80
2016,10,07,07,14,14.50
2016,10,07,07,15,15.50
2016,10,07,07,16,10.60
2016,10,07,07,17,10.00
2016,10,07,07,18,9.80
2016,10,07,07,19,13.20
2016,10,07,07,20,10.90
2016,10,07,07,21,8.20
2016,10,07,07,22,11.30
2016,10,07,07,23,9.40
2016,10,07,07,24,13.60
2016,10,07,07,25,12.40
2016,10,07,07,26,11.70
2016,10,07,07,27,15.60
2016,10,07,07,28,10.40
2016,10,07,07,29,8.00
2016,10,07,07,30,9.80
2016,10,07,07,31,7.50
2016,10,07,07,32,10.00
2016,10,07,07,33,16.00
2016,10,07,07,34,12.50
2016,10,07,07,35,13.10
2016,10,07,07,36,9.90
2016,10,07,07,37,11.50
2016,10,07,07,38,15.80
2016,10,07,07,39,10.30
2016,10,07,07,40,7.90
2016,10,07,07,41,13.30
2016,10,07,07,42,12.40
2016,10,07,07,43,12.70
2016,10,07,07,44,17.10
2016,10,07,07,45,12.30
2016,10,07,07,46,15.00
2016,10,07,07,47,12.60
2016,10,07,07,48,11.00
2016,10,07,07,49,13.00
2016,10,07,07,50,10.00
2016,10,07,07,51,12.50
2016,10,07,07,52,9.90
2016,10,07,07,53,11.70
2016,10,07,07,54,7.40
2016,10,07,07,55,9.20
2016,10,07,07,56,9.40
2016,10,07,07,57,9.60
2016,10,07,07,58,12.00
2016,10,07,07,59,10.40
2016,10,07,08,00,12.00
2016,10,07,08,01,9.00
2016,10,07,08,02,10.60
2016,10,07,08,03,10.20
2016,10,07,08,04,9.70
2016,10,07,08,05,7.30
2016,10,07,08,06,13.00
2016,10,07,08,07,12.70
2016,10,07,08,08,12.60
2016,10,07,08,09,10.20
2016,10,07,08,10,12.90
2016,10,07,08,11,15.70
2016,10,07,08,12,10.60
2016,10,07,08,13,14.20
2016,10,07,08,14,14.90
2016,10,07,08,15,20.60
2016,10,07,08,16,17.90
2016,10,07,08,17,13.90
2016,10,07,08,18,13.90
2016,10,07,08,19,13.80
2016,10,07,08,20,16.20
2016,10,07,08,21,15.60
2016,10,07,08,22,15.90
2016,10,07,08,23,12.70
2016,10,07,08,24,13.00
2016,10,07,08,25,14.50
2016,10,07,08,26,12.50
2016,10,07,08,27,14.70
2016,10,07,08,28,14.00
2016,10,07,08,29,15.00
2016,10,07,08,30,13.70
2016,10,07,08,31,11.00
2016,10,07,08,32,13.20
2016,10,07,08,33,14.30
2016,10,07,08,34,9.00
2016,10,07,08,35,13.60
2016,10,07,08,36,12.30
2016,10,07,08,37,10.90
2016,10,07,08,38,14.90
2016,10,07,08,39,12.30
2016,10,07,08,40,11.00
2016,10,07,08,41,10.30
2016,10,07,08,42,8.30
2016,10,07,08,43,14.10
2016,10,07,08,44,14.30
2016,10,07,08,45,13.30
2016,10,07,08,46,13.50
2016,10,07,08,47,10.10
2016,10,07,08,48,14.40
2016,10,07,08,49,15.30
2016,10,07,08,50,17.20
2016,10,07,08,51,13.40
2016,10,07,08,52,12.30
2016,10,07,08,53,13.70
2016,10,07,08,54,17.50
2016,10,07,08,55,15.50
2016,10,07,08,56,15.50
2016,10,07,08,57,10.70
2016,10,07,08,58,10.80
2016,10,07,08,59,16.60
2016,10,07,09,00,18.60
2016,10,07,09,01,16.50
2016,10,07,09,02,16.20
2016,10,07,09,03,11.30
2016,10,07,09,04,10.60
2016,10,07,09,05,10.80
2016,10,07,09,06,19.10
2016,10,07,09,07,16.90
2016,10,07,09,08,10.30
2016,10,07,09,09,18.20
2016,10,07,09,10,14.50
2016,10,07,09,11,13.10
2016,10,07,09,12,14.60
2016,10,07,09,13,18.50
2016,10,07,09,14,13.90
2016,10,07,09,15,11.30
2016,10,07,09,16,12.40
2016,10,07,09,17,15.40
2016,10,07,09,18,14.70
2016,10,07,09,19,15.40
2016,10,07,09,20,12.40
2016,10,07,09,21,10.10
2016,10,07,09,22,12.10
2016,10,07,09,23,12.60
2016,10,07,09,24,9.50
2016,10,07,09,25,15.70
2016,10,07,09,26,11.00
2016,10,07,09,27,16.20
2016,10,07,09,28,13.30
2016,10,07,09,29,11.70
2016,10,07,09,30,11.90
2016,10,07,09,31,11.60
2016,10,07,09,32,12.00
2016,10,07,09,33,9.70
2016,10,07,09,34,12.00
2016,10,07,09,35,15.20
2016,10,07,09,36,15.10
2016,10,07,09,37,14.50
2016,10,07,09,38,14.50
2016,10,07,09,39,14.50
2016,10,07,09,40,13.60
2016,10,07,09,41,13.10
2016,10,07,09,42,11.20
2016,10,07,09,43,8.30
2016,10,07,09,44,9.40
2016,10,07,09,45,14.80
2016,10,07,09,46,18.40
2016,10,07,09,47,10.60
2016,10,07,09,48,16.40
2016,10,07,09,49,15.80
2016,10,07,09,50,11.50
2016,10,07,09,51,11.10
2016,10,07,09,52,8.80
2016,10,07,09,53,7.60
2016,10,07,09,54,11.30
2016,10,07,09,55,14.80
2016,10,07,09,56,8.50
2016,10,07,09,57,7.40
2016,10,07,09,58,18.40
2016,10,07,09,59,12.90
2016,10,07,10,00,11.60
2016,10,07,10,01,5.60
2016,10,07,10,02,11.60
2016,10,07,10,03,7.70
2016,10,07,10,04,8.50
2016,10,07,10,05,10.90
2016,10,07,10,06,9.50
2016,10,07,10,07,9.30
2016,10,07,10,08,10.40
2016,10,07,10,09,16.40
2016,10,07,10,10,11.30
2016,10,07,10,11,6.40
2016,10,07,10,12,11.10
2016,10,07,10,13,8.40
2016,10,07,10,14,5.50
2016,10,07,10,15,8.00
2016,10,07,10,16,9.00
2016,10,07,10,17,10.40
2016,10,07,10,18,9.40
2016,10,07,10,19,9.90
2016,10,07,10,20,10.10
2016,10,07,10,21,8.40
2016,10,07,10,22,8.60
2016,10,07,10,23,5.30
2016,10,07,10,24,9.00
2016,10,07,10,25,11.10
2016,10,07,10,26,11.50
2016,10,07,10,27,9.10
2016,10,07,10,28,8.40
2016,10,07,10,29,11.80
2016,10,07,10,30,9.60
2016,10,07,10,31,9.90
2016,10,07,10,32,13.60
2016,10,07,10,33,11.20
2016,10,07,10,34,10.40
2016,10,07,10,35,10.30
2016,10,07,10,36,6.70
2016,10,07,10,37,6.70
2016,10,07,10,38,8.00
2016,10,07,10,39,10.80
2016,10,07,10,40,10.70
2016,10,07,10,41,9.10
2016,10,07,10,42,9.00
2016,10,07,10,43,13.80
2016,10,07,10,44,9.00
2016,10,07,10,45,8.70
2016,10,07,10,46,13.20
2016,10,07,10,47,10.90
2016,10,07,10,48,12.10
2016,10,07,10,49,9.70
2016,10,07,10,50,16.30
2016,10,07,10,51,11.20
2016,10,07,10,52,10.30
2016,10,07,10,53,9.20
2016,10,07,10,54,7.70
2016,10,07,10,55,8.20
2016,10,07,10,56,15.60
2016,10,07,10,57,10.20
2016,10,07,10,58,11.60
2016,10,07,10,59,10.40
2016,10,07,11,00,9.40
2016,10,07,11,01,7.00
2016,10,07,11,02,10.50
2016,10,07,11,03,11.60
2016,10,07,11,04,11.20
2016,10,07,11,05,10.70
2016,10,07,11,06,10.00
2016,10,07,11,07,14.80
2016,10,07,11,08,13.30
2016,10,07,11,09,10.10
2016,10,07,11,10,8.90
2016,10,07,11,11,14.00
2016,10,07,11,12,10.90
2016,10,07,11,13,11.90
2016,10,07,11,14,10.30
2016,10,07,11,15,9.10
2016,10,07,11,16,12.10
2016,10,07,11,17,14.00
2016,10,07,11,18,12.40
2016,10,07,11,19,13.10
2016,10,07,11,20,13.60
2016,10,07,11,21,10.50
2016,10,07,11,22,5.40
2016,10,07,11,23,7.80
2016,10,07,11,24,8.00
2016,10,07,11,25,9.00
2016,10,07,11,26,11.30
2016,10,07,11,27,13.80
2016,10,07,11,28,9.90
2016,10,07,11,29,11.90
2016,10,07,11,30,9.00
2016,10,07,11,31,13.70
2016,10,07,11,32,9.00
2016,10,07,11,33,11.30
2016,10,07,11,34,11.00
2016,10,07,11,35,8.70
2016,10,07,11,36,8.50
2016,10,07,11,37,9.70
2016,10,07,11,38,10.50
2016,10,07,11,39,12.30
2016,10,07,11,40,14.00
2016,10,07,11,41,14.10
2016,10,07,11,42,14.00
2016,10,07,11,43,13.30
2016,10,07,11,44,10.60
2016,10,07,11,45,9.70
2016,10,07,11,46,11.50
2016,10,07,11,47,5.90
2016,10,07,11,48,12.10
2016,10,07,11,49,11.00
2016,10,07,11,50,10.40
2016,10,07,11,51,10.30
2016,10,07,11,52,10.80
2016,10,07,11,53,8.60
2016,10,07,11,54,10.60
2016,10,07,11,55,9.50
2016,10,07,11,56,4.50
2016,10,07,11,57,8.60
2016,10,07,11,58,8.70
2016,10,07,11,59,8.40
2016,10,07,12,00,7.30
2016,10,07,12,01,5.50
2016,10,07,12,02,7.60
2016,10,07,12,03,8.70
2016,10,07,12,04,10.00
2016,10,07,12,05,7.10
2016,10,07,12,06,9.40
2016,10,07,12,07,10.30
2016,10,07,12,08,10.70
2016,10,07,12,09,7.90
2016,10,07,12,10,12.30
2016,10,07,12,11,11.70
2016,10,07,12,12,11.10
2016,10,07,12,13,11.60
2016,10,07,12,14,8.30
2016,10,07,12,15,7.30
2016,10,07,12,16,9.00
2016,10,07,12,17,14.40
2016,10,07,12,18,10.40
2016,10,07,12,19,9.80
2016,10,07,12,20,6.80
2016,10,07,12,21,7.00
2016,10,07,12,22,6.80
2016,10,07,12,23,6.40
2016,10,07,12,24,6.70
2016,10,07,12,25,9.40
2016,10,07,12,26,6.60
2016,10,07,12,27,6.80
2016,10,07,12,28,9.30
2016,10,07,12,29,8.90
2016,10,07,12,30,8.40
2016,10,07,12,31,5.30
2016,10,07,12,32,8.60
2016,10,07,12,33,12.20
2016,10,07,12,34,7.00
2016,10,07,12,35,7.10
2016,10,07,12,36,10.10
2016,10,07,12,37,4.70
2016,10,07,12,38,11.40
2016,10,07,12,39,12.20
2016,10,07,12,40,11.80
2016,10,07,12,41,6.50
2016,10,07,12,42,4.90
2016,10,07,12,43,6.50
2016,10,07,12,44,3.90
2016,10,07,12,45,8.30
2016,10,07,12,46,7.40
2016,10,07,12,47,6.70
2016,10,07,12,48,6.30
2016,10,07,12,49,7.30
2016,10,07,12,50,4.60
2016,10,07,12,51,8.70
2016,10,07,12,52,7.30
2016,10,07,12,53,7.70
2016,10,07,12,54,7.40
2016,10,07,12,55,7.30
2016,10,07,12,56,6.50
2016,10,07,12,57,4.10
2016,10,07,12,58,11.00
2016,10,07,12,59,10.60
2016,10,07,13,00,11.30
2016,10,07,13,01,11.40
2016,10,07,13,02,11.70
2016,10,07,13,03,7.00
2016,10,07,13,04,6.50
2016,10,07,13,05,9.00
2016,10,07,13,06,6.30
2016,10,07,13,07,6.10
2016,10,07,13,08,8.40
2016,10,07,13,09,4.20
2016,10,07,13,10,8.30
2016,10,07,13,11,9.60
2016,10,07,13,12,9.70
2016,10,07,13,13,9.00
2016,10,07,13,14,10.40
2016,10,07,13,15,10.70
2016,10,07,13,16,11.30
2016,10,07,13,17,8.90
2016,10,07,13,18,10.90
2016,10,07,13,19,11.70
2016,10,07,13,20,9.70
2016,10,07,13,21,9.50
2016,10,07,13,22,10.70
2016,10,07,13,23,10.90
2016,10,07,13,24,8.60
2016,10,07,13,25,6.90
2016,10,07,13,26,9.00
2016,10,07,13,27,11.30
2016,10,07,13,28,8.80
2016,10,07,13,29,9.20
2016,10,07,13,30,10.80
2016,10,07,13,31,9.60
2016,10,07,13,32,8.60
2016,10,07,13,33,6.70
2016,10,07,13,34,5.40
2016,10,07,13,35,5.60
2016,10,07,13,36,5.70
2016,10,07,13,37,7.40
2016,10,07,13,38,7.50
2016,10,07,13,39,7.40
2016,10,07,13,40,7.90
2016,10,07,13,41,6.40
2016,10,07,13,42,9.30
2016,10,07,13,43,9.10
2016,10,07,13,44,11.10
2016,10,07,13,45,11.70
2016,10,07,13,46,10.70
2016,10,07,13,47,10.20
2016,10,07,13,48,9.10
2016,10,07,13,49,6.20
2016,10,07,13,50,12.30
2016,10,07,13,51,10.10
2016,10,07,13,52,10.50
2016,10,07,13,53,12.70
2016,10,07,13,54,10.30
2016,10,07,13,55,12.80
2016,10,07,13,56,9.50
2016,10,07,13,57,10.30
2016,10,07,13,58,10.20
2016,10,07,13,59,11.00
2016,10,07,14,00,9.00
2016,10,07,14,01,12.00
2016,10,07,14,02,10.90
2016,10,07,14,03,8.40
2016,10,07,14,04,11.00
2016,10,07,14,05,11.50
2016,10,07,14,06,12.30
2016,10,07,14,07,13.10
2016,10,07,14,08,13.40
2016,10,07,14,09,11.70
2016,10,07,14,10,11.30
2016,10,07,14,11,8.30
2016,10,07,14,12,11.60
2016,10,07,14,13,10.30
2016,10,07,14,14,12.10
2016,10,07,14,15,8.10
2016,10,07,14,16,8.80
2016,10,07,14,17,8.20
2016,10,07,14,18,9.00
2016,10,07,14,19,9.40
2016,10,07,14,20,8.60
2016,10,07,14,21,7.30
2016,10,07,14,22,5.70
2016,10,07,14,23,6.10
2016,10,07,14,24,7.70
2016,10,07,14,25,6.50
2016,10,07,14,26,6.70
2016,10,07,14,27,6.40
2016,10,07,14,28,8.90
2016,10,07,14,29,12.20
2016,10,07,14,30,11.30
2016,10,07,14,31,6.90
2016,10,07,14,32,11.00
2016,10,07,14,33,7.90
2016,10,07,14,34,8.70
2016,10,07,14,35,8.60
2016,10,07,14,36,8.10
2016,10,07,14,37,9.50
2016,10,07,14,38,8.40
2016,10,07,14,39,5.30
2016,10,07,14,40,9.40
2016,10,07,14,41,8.60
2016,10,07,14,42,9.40
2016,10,07,14,43,5.70
2016,10,07,14,44,8.20
2016,10,07,14,45,5.40
2016,10,07,14,46,5.70
2016,10,07,14,47,5.90
2016,10,07,14,48,6.90
2016,10,07,14,49,8.00
2016,10,07,14,50,7.30
2016,10,07,14,51,6.70
2016,10,07,14,52,7.10
2016,10,07,14,53,5.00
2016,10,07,14,54,5.50
2016,10,07,14,55,4.90
2016,10,07,14,56,5.10
2016,10,07,14,57,8.40
2016,10,07,14,58,7.80
2016,10,07,14,59,9.50
2016,10,07,15,00,10.00
2016,10,07,15,01,6.70
2016,10,07,15,02,9.90
2016,10,07,15,03,8.00
2016,10,07,15,04,7.70
2016,10,07,15,05,11.90
2016,10,07,15,06,9.40
2016,10,07,15,07,6.70
2016,10,07,15,08,10.00
2016,10,07,15,09,7.70
2016,10,07,15,10,9.30
2016,10,07,15,11,6.90
2016,10,07,15,12,2.80
2016,10,07,15,13,5.50
2016,10,07,15,14,6.00
2016,10,07,15,15,3.40
2016,10,07,15,16,4.90
2016,10,07,15,17,7.10
2016,10,07,15,18,4.40
2016,10,07,15,19,5.90
2016,10,07,15,20,2.60
2016,10,07,15,21,6.00
2016,10,07,15,22,8.10
2016,10,07,15,23,6.00
2016,10,07,15,24,7.70
2016,10,07,15,25,6.80
2016,10,07,15,26,8.00
2016,10,07,15,27,7.90
2016,10,07,15,28,5.30
2016,10,07,15,29,6.30
2016,10,07,15,30,5.50
2016,10,07,15,31,5.10
2016,10,07,15,32,6.90
2016,10,07,15,33,3.90
2016,10,07,15,34,6.70
2016,10,07,15,35,7.80
2016,10,07,15,36,8.10
2016,10,07,15,37,8.30
2016,10,07,15,38,6.40
2016,10,07,15,39,5.90
2016,10,07,15,40,5.80
2016,10,07,15,41,6.10
2016,10,07,15,42,6.40
2016,10,07,15,43,4.40
2016,10,07,15,44,5.20
2016,10,07,15,45,6.30
2016,10,07,15,46,6.10
2016,10,07,15,47,5.70
2016,10,07,15,48,5.30
2016,10,07,15,49,4.70
2016,10,07,15,50,4.30
2016,10,07,15,51,3.80
2016,10,07,15,52,3.40
2016,10,07,15,53,5.20
2016,10,07,15,54,4.00
2016,10,07,15,55,2.80
2016,10,07,15,56,5.20
2016,10,07,15,57,3.70
2016,10,07,15,58,3.10
2016,10,07,15,59,4.70
2016,10,07,16,00,5.10
2016,10,07,16,01,2.20
2016,10,07,16,02,3.10
2016,10,07,16,03,3.70
2016,10,07,16,04,2.80
2016,10,07,16,05,5.30
2016,10,07,16,06,3.70
2016,10,07,16,07,3.90
2016,10,07,16,08,4.40
2016,10,07,16,09,4.50
2016,10,07,16,10,4.10
2016,10,07,16,11,3.10
2016,10,07,16,12,2.20
2016,10,07,16,13,2.80
2016,10,07,16,14,6.10
2016,10,07,16,15,4.40
2016,10,07,16,16,1.90
2016,10,07,16,17,5.50
2016,10,07,16,18,3.90
2016,10,07,16,19,6.10
2016,10,07,16,20,5.10
2016,10,07,16,21,5.00
2016,10,07,16,22,2.10
2016,10,07,16,23,2.60
2016,10,07,16,24,0.10
2016,10,07,16,25,2.80
2016,10,07,16,26,2.40
2016,10,07,16,27,3.10
2016,10,07,16,28,3.80
2016,10,07,16,29,3.70
2016,10,07,16,30,6.40
2016,10,07,16,31,4.20
2016,10,07,16,32,5.50
2016,10,07,16,33,7.30
2016,10,07,16,34,6.60
2016,10,07,16,35,5.40
2016,10,07,16,36,5.90
2016,10,07,16,37,6.90
2016,10,07,16,38,7.50
2016,10,07,16,39,7.80
2016,10,07,16,40,8.20
2016,10,07,16,41,6.10
2016,10,07,16,42,5.10
2016,10,07,16,43,8.00
2016,10,07,16,44,6.50
2016,10,07,16,45,5.40
2016,10,07,16,46,5.50
2016,10,07,16,47,6.70
2016,10,07,16,48,6.10
2016,10,07,16,49,7.40
2016,10,07,16,50,5.70
2016,10,07,16,51,8.20
2016,10,07,16,52,8.30
2016,10,07,16,53,8.20
2016,10,07,16,54,6.80
2016,10,07,16,55,8.20
2016,10,07,16,56,4.80
2016,10,07,16,57,7.10
2016,10,07,16,58,4.40
2016,10,07,16,59,4.80
2016,10,07,17,00,2.00
2016,10,07,17,01,3.70
2016,10,07,17,02,4.30
2016,10,07,17,03,3.40
2016,10,07,17,04,1.90
2016,10,07,17,05,4.40
2016,10,07,17,06,2.40
2016,10,07,17,07,1.80
2016,10,07,17,08,0.40
2016,10,07,17,09,1.70
2016,10,07,17,10,3.20
2016,10,07,17,11,3.60
2016,10,07,17,12,4.70
2016,10,07,17,13,2.90
2016,10,07,17,14,4.20
2016,10,07,17,15,4.40
2016,10,07,17,16,2.80
2016,10,07,17,17,6.10
2016,10,07,17,18,7.10
2016,10,07,17,19,7.00
2016,10,07,17,20,6.30
2016,10,07,17,21,3.10
2016,10,07,17,22,3.20
2016,10,07,17,23,5.60
2016,10,07,17,24,3.50
2016,10,07,17,25,3.40
2016,10,07,17,26,3.10
2016,10,07,17,27,4.60
2016,10,07,17,28,0.70
2016,10,07,17,29,4.00
2016,10,07,17,30,1.50
2016,10,07,17,31,3.10
2016,10,07,17,32,1.70
2016,10,07,17,33,0.00
2016,10,07,17,34,2.30
2016,10,07,17,35,5.10
2016,10,07,17,36,5.10
2016,10,07,17,37,3.10